Location: Unspecified
(0.0000°N, 0.0000°E)
Time: 19:37:05
(UTC+00:00)

CZ-3C DEB - Visible Passes

Search period start: 14 January 2025 00:00
Search period end: 24 January 2025 00:00
Orbit: 606 x 34875 km, 20.1° (Epoch: 13 January)

Date Brightness Start Highest point End Pass type
(mag) Time Alt. Az. Time Alt. Az. Time Alt. Az.
14 Jan ? 10:24:44 10° NW 17:37:27 71° SE 20:05:11 10° ESE visible
15 Jan ? 18:56:11 10° W 19:41:29 13° W 20:44:48 10° W visible
16 Jan ? 03:35:33 15° ENE 03:35:33 15° ENE 03:36:05 10° ENE visible
16 Jan ? 14:28:31 10° WNW 16:19:30 68° WNW 23:58:45 48° S visible
17 Jan ? 10:55:48 10° NW 17:23:34 77° SSE 20:38:04 10° ESE visible
19 Jan ? 04:05:24 27° ENE 04:05:24 27° ENE 04:06:59 10° ENE visible
19 Jan ? 15:02:26 10° WNW 16:47:36 57° W 00:27:22 44° SSW visible
20 Jan ? 11:26:59 10° NW 16:47:11 80° SSE 21:09:51 12° ESE visible
22 Jan ? 04:35:08 35° N 04:35:08 35° N 04:37:59 10° NE visible
22 Jan ? 15:37:48 10° WNW 17:17:28 46° W 00:56:05 33° SW visible
23 Jan ? 11:58:23 10° WNW 16:03:58 84° SSE 21:38:35 23° ESE visible
